Location: Fort Worth, Tx
(32.7431°N, 97.3695°W)
Time: 09:49:03
(UTC-04:00)

A-11 Canister half - Pass Details

Date: 20 August 2024
Orbit: 1524 x 1684 km, 47.3° (Epoch: 13 September)

Event Time Altitude Azimuth Distance (km) Brightness Sun altitude
Rises 21:48:59 0° 221° (SW) 4,799 11.9 -9.0°
Reaches altitude 10° 21:52:03 10° 219° (SW) 3,836 11.3 -9.6°
Maximum altitude 22:01:50 72° 137° (SE) 1,723 9.1 -11.5°
Drops below altitude 10° 22:11:55 10° 56° (NE) 3,943 10.8 -13.5°
Sets 22:15:06 0° 54° (NE) 4,939 11.4 -14.1°
